sat.trackr.live / text

‹ back to catalog

STARLINK-34153

NORAD 63967 · 2025-099R

PAYLOAD ACTIVE UNKNOWN

§ Identity

Operator
Country
US
Launch date
2025-05-13
Launch site
AFETR
Launch vehicle
Mass (kg)
RCS (m²)

Purposes: comms

External: N2YO · Heavens-Above · Gunter

§ Orbital elements

Epoch: 2026-09-20T10:25:02.202528Z

Period
94.27 min
Inclination
43.0033°
Eccentricity
0.0001663
Mean motion
15.27583199 rev/d
Perigee alt
481.9 km
Apogee alt
484.2 km
Semi-major
6,861.2 km
B*
4.2937e-4
RAAN
156.0809°
Arg perigee
266.1436°
Mean anomaly
93.9225°
Rev number
7,712

§ Raw data

STARLINK-341531 63967U 25099R   26263.43405327  .00011573  00000+0  42937-3 0  99972 63967  43.0033 156.0809 0001663 266.1436  93.9225 15.27583199 77126

JSON: /api/v1/satellites/63967 · /tle

For live sub-satellite position, see the globe view (requires WebGL).

§ Visibility from observer

Set your observer location to see the next 7 days of passes ≥ 10°. The values pass through the URL so the page stays shareable.

No JS? Fill the form by hand. The geolocation button needs JavaScript.